Location: Andiroba
(19.8650°S, 43.9258°W)
Time: 02:49:07
(UTC+00:00)

Cosmos 1725 Rocket - Pass Details

Date: 25 September 2024
Orbit: 962 x 989 km, 82.9° (Epoch: 08 October)

Event Time Altitude Azimuth Distance (km) Brightness Sun altitude
Rises 08:06:39 0° 343° (NNW) 3,681 6.8 -9.2°
Reaches altitude 10° 08:09:14 10° 338° (NNW) 2,740 6.1 -8.6°
Maximum altitude 08:15:17 50° 264° (W) 1,249 4.2 -7.1°
Drops below altitude 10° 08:21:25 10° 190° (S) 2,762 6.3 -5.7°
Sets 08:24:03 0° 184° (S) 3,714 7.0 -5.1°
